Weather in Szolnok

Hungary     47°10′40″N   20°11′25″E
В апреле 2022 года жителям России запретили посещать сайт meteo.paraplan.net по решению Генеральной прокуратуры. Аудитория сайта уменьшилась в 10 раз. Владельцы сайта не видят смысла в поддержке погодного сервера в таких условиях. Сайт будет закрыт в октябре.
temp.,
°C
wind,
m/s
gust,
m/s
humid.,
%
clouds,
%
prec.,
mm/h
press.,
hPa
HPBL,
m
25 september, sun
sun2523:00+15sse41052100 0.0 1016282
02:00+14sse3953100 0.0 1016275
05:00+13sse3858100 0.0 1015201
08:00+13s3564100 0.1 1016155
11:00+16sw2457100 0.0 1016462
14:00+17wnw1163100 0.0 101566
17:00+15e1171100 0.0 101411
20:00+15e2266100 0.0 101320
26 september, mon
mon2623:00+14ssw1162100 0.0 101311
02:00+13ssw1167100 0.0 101215
05:00+13s2474100 0.0 1010138
08:00+14ssw2578100 0.1 1010247
11:00+15sw2478100 0.3 1010433
14:00+16w2379100 0.5 1009540
17:00+16w1181100 0.1 1008108
20:00+15ne3385100 0.1 1006117
27 september, tue
tue2723:00+14nne3490100 0.7 1005160
02:00+14nne2393100 2.4 1004151
05:00+13nne129399 0.1 100382
08:00+13nnw1191100 0.5 1002113
11:00+15n1083100 0.2 1003297
14:00+18nnw1266100 0.2 1002874
17:00+18nw2260100 0.3 10011077
20:00+14nw597295 1.0 1002359
28 september, wed
wed2823:00+13wnw51071100 0.0 1003377
02:00+12w4980100 0.0 1004351
05:00+11wnw41171100 0.0 1004345
08:00+11wsw257189 0.0 1005191
11:00+16wnw334799 0.0 1005839
14:00+17sse334897 0.0 1004680
17:00+18s464434 0.0 10031146
20:00+14s2264100 0.0 100417
29 september, thu
thu2923:00+14se2370100 0.0 100443
02:00+14sw1282100 0.3 100449
05:00+14n1186100 0.2 100412
08:00+13nne2391100 0.9 1004101
11:00+14e3590100 0.3 1005258
14:00+17wnw2477100 0.8 1004536
17:00+15nnw229098 0.9 1006131
20:00+13nnw349594 1.0 100796